This is the latest recevied weather packets stored in our database for station/object KB1WCR. If no packets are shown the sender has not sent any weather packets the latest 10 day(s).
| Time | Temp. | Humidity | Pressure | Rain* | Wind** | Luminosity | Snow |
|---|---|---|---|---|---|---|---|
| 1787767793 | 27.22° C | 54% | 1016.6 hPa | 0 mm | - | 713 W/m² | - |
| 1787767488 | 28.33° C | 55% | 1016.7 hPa | 0 mm | - | 386 W/m² | - |
| 1787767186 | 27.78° C | 53% | 1016.6 hPa | 0 mm | - | 722 W/m² | - |
| 1787766885 | 27.78° C | 55% | 1016.8 hPa | 0 mm | - | 765 W/m² | - |
| 1787766580 | 27.78° C | 52% | 1016.7 hPa | 0 mm | - | 701 W/m² | - |
| 1787766279 | 27.78° C | 52% | 1016.9 hPa | 0 mm | - | 789 W/m² | - |
| 1787765979 | 28.33° C | 54% | 1016.9 hPa | 0 mm | - | 221 W/m² | - |
| 1787765676 | 27.78° C | 57% | 1016.8 hPa | 0 mm | - | 749 W/m² | - |
| 1787765371 | 27.78° C | 52% | 1016.8 hPa | 0 mm | - | 768 W/m² | - |
| 1787765065 | 27.78° C | 52% | 1017 hPa | 0 mm | - | 772 W/m² | - |
| 1787764760 | 27.22° C | 56% | 1016.7 hPa | 0 mm | - | 771 W/m² | - |
| 1787764455 | 25.56° C | 59% | 1016.9 hPa | 0 mm | - | 782 W/m² | - |
| 1787764151 | 25.56° C | 59% | 1017 hPa | 0 mm | - | 200 W/m² | - |
| 1787763846 | 26.67° C | 58% | 1017.1 hPa | 0 mm | - | 232 W/m² | - |
| 1787763541 | 27.22° C | 58% | 1017.1 hPa | 0 mm | - | 308 W/m² | - |
| 1787763236 | 27.78° C | 56% | 1017 hPa | 0 mm | - | 788 W/m² | - |
| 1787762932 | 27.22° C | 56% | 1017.1 hPa | 0 mm | - | 779 W/m² | - |
| 1787762632 | 27.22° C | 57% | 1017 hPa | 0 mm | - | 762 W/m² | - |
| 1787762329 | 26.11° C | 60% | 1017 hPa | 0 mm | - | 768 W/m² | - |
| 1787762029 | 26.67° C | 58% | 1017.1 hPa | 0 mm | - | 179 W/m² | - |
| 1787761728 | 27.22° C | 55% | 1017 hPa | 0 mm | - | 736 W/m² | - |
| 1787761424 | 26.67° C | 60% | 1017.2 hPa | 0 mm | - | 752 W/m² | - |
| 1787761118 | 26.67° C | 62% | 1017.1 hPa | 0 mm | - | 751 W/m² | - |
| 1787760817 | 26.11° C | 61% | 1017.3 hPa | 0 mm | - | 747 W/m² | - |
| 1787760516 | 26.11° C | 60% | 1017.3 hPa | 0 mm | - | 731 W/m² | - |
* Rain latest hour (hover to see other rain measurements)
** Current wind speed in m/s (hover to see current wind gust speed)